FENGYUN 1C DEB

Satellite information

Favourite Embed

Satellite Type and Status

DEBRISIN ORBIT

Key statistics

Satellite FENGYUN 1C DEB at a glance.

Uptime

9714

Days in orbit

Revolutions

≈ 14.3

Per day

Orbit

SSO

Sun Synchronous Orbit

Inclination

99.4

Latest

Satellite identification and parameters

Extended collection of information and parameters for FENGYUN 1C DEB.

Object identification

Identified? True

Debris? True

Object name: FENGYUN 1C DEB

International designator: 1999-025BAK

Object number (NORAD): 30945

Object ID (CCSDS): 30945

Country: PEOPLES REPUBLIC OF CHINA (PRC)

Current information (Y/N): Y

RCS size: SMALL

Orbital parameters

Period: 100.72 minutes

Inclination: 99.3881 deg

SMA: 7170.843 km

Apoapsis: 814.654 km

Periapsis: 770.763 km

RAAN: 354.9223 deg

Eccentricy: 0.00306042

Argument of periapsis: 39.479 deg

Mean anomaly: 336.7453 deg

Mean motion: 14.29708162 rev/day

Mean motion (dot): 0.00006956 rev/day2

B* drag term: 0.0027151014 1/REarth

Two-line elements (TLE)

Creation date: Dec. 12, 2025, 10:14 a.m.

Reference frame: TEME

Reference center: EARTH

Epoch: Dec. 12, 2025, 7:01 a.m. UTC

TLE line 0: 0 FENGYUN 1C DEB

TLE line 1: 1 30945U 99025BAK 25346.29260604 .00006956 00000-0 27151-2 0 9999

TLE line 2: 2 30945 99.3881 354.9223 0030604 39.4790 336.7453 14.29708162964318

Live tracking on map

Real-time ground track for satellite FENGYUN 1C DEB.

In-orbit conjunctions

A list of the most updated potential collisions computed for object FENGYUN 1C DEB.

Target Orbit TCA Probability of collision Miss distance Type
FENGYUN 1C DEB SSO 2025-08-27 07:12:39 0.0001079994 91.0 (m) DEBRIS
COSMOS 1048 LEO 2024-11-27 19:43:21 0.0001675652 479.0 (m) PAYLOAD
NOAA 16 DEB SSO 2024-06-24 13:06:11 0.0002546628 81.0 (m) DEBRIS

Associated space launch

Chinese polar orbiting meteorological satellite

FENGYUN 1C DEB was lifted into orbit during the mission ‘Long March 4B | Feng Yun 1C’, on board a Long March 4B space rocket.

The launch took place on May 10, 1999, 1:33 a.m. from Launch Complex 7.

For more information about the launch, click the button.

Launch to space Long March 4B | Feng Yun 1C
Long March 4B | Feng Yun 1C

Agency: N/A

Status: Launch Successful

Launch date: May 10, 1999, 1:33 a.m. UTC

Rocket: Long March 4B

Launch pad: Launch Complex 7

Location: Taiyuan Satellite Launch Center, People's Republic of China

...

Latest news about this satellite

There are no fresh news available about this satellite. Check back as we update our databases every day.


Newsletter sign-up

Weekly statistics, charts and insights to help you stay on top of the space industry.